This demonstration page uses our WeatherBlox Daily Observations layout. Learn more.

Left ArrowRight Arrow

39.01783, -85.05884

Hourly Observations for December 23, 2017

Temp ( °F °C ) Dew Point ( °F °C ) Humidity (%) Winds ( mph kmh ) Pressure ( in mb ) Visibility ( mi km ) Precip ( " mm )
12:02 am 00:02 Cloudy with Rain 53 11.7 53 11.7 100 100 Calm 29.91 1013 2 2 0.05 1.27
12:30 am 00:30 Cloudy with Rain 53 11.7 53 11.7 100 100 WNW 3 6 29.91 1013 2 2 0.14 3.56
12:52 am 00:52 Cloudy with Rain 50 10 50 10 100 100 NNW 9 15 29.89 1012 2 2 0.23 5.84
1:16 am 01:16 Cloudy with Rain 50 10 50 10 100 100 NNW 8 13 29.88 1012 2 2 0.08 2.03
1:52 am 01:52 Cloudy with Rain 49 9.4 49 9.4 100 100 NNW 7 11 29.88 1012 2 2 0.18 4.57
2:52 am 02:52 Cloudy with Rain 48 8.9 48 8.9 100 100 N 8 13 29.87 1011 2 2 0.15 3.81
3:52 am 03:52 Cloudy with Heavy Rain 47 8.3 47 8.3 100 100 N 10 17 29.85 1011 2 2 0.19 4.83
4:43 am 04:43 Cloudy with Rain 43 6.1 43 6.1 100 100 N 15 24 29.85 1011 2 2 0.16 4.06
4:52 am 04:52 Cloudy with Rain 42 5.6 42 5.6 100 100 N 17 28 29.83 1010 2 2 0.19 4.83
5:52 am 05:52 Mostly Cloudy with Light Rain 41 5 41 5 100 100 N 15 24 29.80 1009 6 10 0.14 3.56
6:52 am 06:52 Cloudy with Rain 39 3.9 39 3.9 100 100 N 16 26 29.83 1010 8 13 0.04 1.02
7:52 am 07:52 Cloudy with Light Rain 39 3.9 39 3.9 100 100 N 14 22 29.83 1010 10 16 0.03 0.76
8:52 am 08:52 Cloudy with Light Rain 38 3.3 38 3.3 100 100 N 17 28 29.82 1010 6 10 0.01 0.25
9:21 am 09:21 Cloudy with Light Rain 38 3.3 37 2.8 97 97 N 17 28 29.85 1011 3 4 0.01 0.25
9:52 am 09:52 Cloudy with Light Rain 37 2.8 37 2.8 100 100 N 17 28 29.86 1011 3 4 0.03 0.76
10:52 am 10:52 Cloudy with Rain 37 2.8 36 2.2 96 96 NNW 23 37 29.92 1013 3 5 0.07 1.78
11:52 am 11:52 Windy with Snow Likely 35 1.7 35 1.7 100 100 N 21 33 29.93 1014 4 6 0.03 0.76
12:37 pm 12:37 Cloudy with Mist and Fog 35 1.7 35 1.7 100 100 N 15 24 29.97 1015 5 8 0.01 0.25
12:44 pm 12:44 Cloudy with Light Snow 35 1.7 35 1.7 100 100 NNW 16 26 29.97 1015 5 8 0.01 0.25
12:52 pm 12:52 Cloudy with Light Snow 35 1.7 35 1.7 100 100 NNW 14 22 29.95 1014 4 6 0.01 0.25
1:22 pm 13:22 Cloudy with Light Snow 34 1.1 34 1.1 100 100 N 9 15 29.97 1015 2 2 0.00 0.03
1:32 pm 13:32 Cloudy with Light Snow 35 1.7 35 1.7 100 100 NNE 7 11 29.94 1014 3 5 0.00 0.03
1:52 pm 13:52 Cloudy 36 2.2 35 1.7 97 97 NNW 10 17 29.96 1014 9 14 0.00 0.03
2:35 pm 14:35 Cloudy 36 2.2 35 1.7 97 97 NNW 15 24 30.03 1017 10 16 0.00 0.00
2:52 pm 14:52 Cloudy 36 2.2 35 1.7 97 97 NNW 12 19 30.02 1017 9 14 0.00 0.00
3:26 pm 15:26 Cloudy 36 2.2 34 1.1 93 93 NW 15 24 30.09 1019 8 13 0.00 0.00
3:52 pm 15:52 Cloudy 36 2.2 34 1.1 93 93 NNW 10 17 30.07 1018 8 13 0.00 0.00
4:04 pm 16:04 Cloudy 36 2.2 34 1.1 93 93 NW 14 22 30.09 1019 8 13 0.00 0.00
4:52 pm 16:52 Cloudy 36 2.2 32 0 86 86 NNW 10 17 30.10 1019 8 13 0.00 0.00
4:56 pm 16:56 Cloudy 36 2.2 32 0 86 86 NNW 9 15 30.12 1020 8 13 0.00 0.00
5:52 pm 17:52 Cloudy 35 1.7 30 -1.1 82 82 NNW 7 11 30.13 1020 10 16 0.00 0.00
6:52 pm 18:52 Cloudy 35 1.7 31 -0.6 85 85 NNW 7 11 30.16 1021 10 16 0.00 0.00
7:52 pm 19:52 Cloudy 35 1.7 30 -1.1 82 82 NW 7 11 30.19 1022 10 16 0.00 0.00
8:52 pm 20:52 Cloudy 35 1.7 30 -1.1 82 82 N 5 7 30.20 1023 10 16 0.00 0.00
9:52 pm 21:52 Cloudy 34 1.1 31 -0.6 89 89 Calm 30.21 1023 10 16 0.00 0.00
10:52 pm 22:52 Cloudy 34 1.1 32 0 92 92 Calm 30.21 1023 10 16 0.00 0.00
11:52 pm 23:52 Cloudy 34 1.1 30 -1.1 85 85 NW 5 7 30.20 1023 10 16 0.00 0.00

Powered by AerisWeather